User: anonymous   Login
Location: Sungai Laei
(2.6000°N, 113.7167°E)
Time: 19:12:35
(UTC+00:00)
Language:

Cosmos 1758 Rocket - Orbit

View from above orbital plane
View from above orbital plane
View from above satellite
View from above satellite

Ground track
Ground track

The orbit data is extracted from the following two-line orbital elements,

1 16792U 86046B   22229.47721767  .00000260  00000-0  28656-4 0  9996
2 16792  82.4806 226.2338 0023653 194.5459 165.5078 14.83447155954638
Epoch (UTC): 17 August 2022 11:27:11
Eccentricity: 0.0023653
inclination: 82.4806°
perigee height: 602 km
apogee height: 635 km
right ascension of ascending node: 226.2338°
argument of perigee: 194.5459°
revolutions per day: 14.83447155
mean anomaly at epoch: 165.5078°
orbit number at epoch: 95463

The dashed part of the orbit path shows where the satellite is in the earth's shadow,  

DLR